Temp
61 60 60 60 60 59 59 59 59 60 60 60 60 60 61 60 59 68 66 74 73 70 68 81 82 82 85 83 84 84 70 68 72 70 71 78 79 88 89 85 88 91 90 94 95
60 60 60 60 60 59 59 59 59 59 60 60 60 60 59 59 65 68 76 68 69 68 78 80 77 80 78 79 80 77 70 71 76 75 72 76 79 82 81 82 84 87 94 96 95
60 60 60 60 59 59 59 59 59 59 60 60 60 59 59 62 65 77 71 68 68 71 84 83 83 80 75 79 77 76 71 76 73 74 77 77 78 83 79 77 84 84 88 93 94
59 60 60 59 59 59 59 59 59 59 59 59 59 59 59 65 65 79 72 68 69 82 82 80 80 75 73 71 77 68 74 76 76 77 76 74 79 77 79 81 87 88 89 90 90
59 59 59 59 59 59 59 59 59 59 58 58 58 59 63 66 73 81 70 71 77 80 80 79 76 76 72 75 73 70 72 75 78 76 77 77 74 75 78 84 87 88 88 89 90
58 58 59 58 59 59 58 58 58 57 58 58 59 58 64 63 82 82 81 80 82 81 80 81 78 79 75 74 73 74 73 74 75 77 77 73 75 77 80 84 85 85 86 89 91
58 58 58 58 59 59 59 57 57 57 58 59 59 64 63 70 82 83 82 82 83 82 78 81 81 77 77 71 76 74 68 73 74 76 74 78 71 71 80 82 81 83 86 88 90
58 57 58 58 58 58 58 57 57 57 58 59 60 66 64 81 84 79 83 80 82 83 82 83 82 78 76 76 72 69 69 66 75 73 75 72 65 76 81 79 78 81 83 85 88
58 57 57 58 58 58 57 56 57 58 59 60 63 64 68 74 75 83 83 78 81 81 81 81 80 75 74 69 66 68 63 64 67 75 73 72 67 75 78 78 77 79 81 84 86
57 57 57 57 57 57 56 56 57 59 62 67 67 59 73 73 79 80 84 82 77 77 73 73 74 69 71 67 58 62 61 63 62 70 72 70 69 75 79 78 77 79 80 82 84
57 57 57 57 57 56 58 66 62 60 63 68 70 69 74 79 81 78 81 79 78 74 66 72 66 62 67 68 67 64 61 61 65 71 68 66 68 72 77 78 77 79 79 81 82
57 57 56 56 56 55 64 68 73 73 64 73 70 72 75 76 69 76 82 72 70 64 70 66 61 69 69 68 64 63 61 61 66 70 68 66 66 72 75 76 78 78 79 81 83
56 56 56 56 55 58 68 71 78 77 66 68 69 68 71 74 69 72 77 75 68 65 66 63 66 68 65 64 61 63 61 61 61 66 68 66 64 68 75 77 78 79 81 82 82
55 55 55 55 57 70 70 76 79 77 61 63 66 68 70 73 66 79 81 75 70 65 67 65 71 66 64 62 65 59 67 63 61 60 55 67 52 64 70 72 75 77 79 81 83
55 55 55 54 62 68 72 78 79 72 47 66 67 79 73 68 70 71 81 75 66 66 65 63 64 63 62 63 66 61 66 63 62 59 59 60 57 63 71 68 72 76 78 80 81
55 55 54 61 63 70 75 76 73 57 45 62 68 66 65 67 69 72 71 76 74 68 68 67 72 68 67 67 66 68 64 64 63 61 50 59 58 61 65 66 68 72 75 77 80
54 54 57 67 70 74 75 72 56 51 64 58 61 65 64 62 64 67 65 63 61 55 57 64 66 70 68 63 67 63 59 50 49 52 50 62 55 59 66 67 66 67 70 74 75
53 52 56 69 73 72 73 64 47 55 57 64 63 64 59 61 61 62 61 60 64 62 58 53 51 62 66 63 61 61 57 48 36 42 49 58 49 59 67 67 67 68 69 71 71
51 72 75 73 72 72 68 55 53 56 59 59 62 57 57 57 54 54 56 58 62 63 53 52 50 61 62 64 63 58 52 59 48 50 44 52 59 66 68 63 65 66 67 67 68
62 69 71 75 73 70 64 50 57 61 62 62 54 58 52 54 53 50 50 61 59 63 64 58 49 60 61 63 61 59 62 47 49 34 37 49 50 54 59 63 65 64 66 68 70
64 67 72 76 73 68 57 57 59 63 63 57 56 55 56 55 57 52 52 59 61 61 64 61 54 53 57 57 57 57 53 52 49 44 35 37 48 62 61 63 63 65 67 67 67
63 63 73 74 62 66 60 56 53 60 64 60 59 58 56 57 55 55 52 55 62 61 55 60 55 47 53 62 61 59 54 55 42 39 42 38 43 65 63 64 65 65 68 69 67
61 63 74 71 56 61 58 55 58 57 57 56 54 57 60 55 48 53 55 60 62 60 55 57 51 44 49 54 56 52 55 55 54 49 40 36 45 65 66 65 66 64 67 67 64
62 58 65 65 61 52 50 53 52 58 56 57 55 58 56 53 58 52 53 57 61 60 55 57 52 48 45 50 54 47 51 55 52 39 45 47 51 59 61 61 63 63 63 64 64
61 53 54 54 57 51 51 51 49 46 51 54 48 51 50 47 52 52 55 54 59 58 57 55 46 51 53 54 54 52 52 53 51 52 44 50 52 57 61 60 60 63 64 64 64
57 55 60 56 51 48 47 48 44 42 42 42 46 48 45 41 49 46 49 51 50 57 55 55 44 49 47 53 53 50 54 54 54 54 53 53 52 61 61 60 59 60 60 60 61
62 62 55 49 48 46 46 43 43 45 47 48 48 42 42 45 48 49 51 54 54 50 51 51 49 47 42 50 50 46 52 51 52 55 50 43 54 59 57 57 56 56 57 57 59
MSLP
1019.66 1019.30 1018.91 1018.59 1018.22 1017.96 1017.66 1017.37 1017.08 1016.77 1016.45 1016.23 1015.97 1015.80 1015.59 1015.41 1015.14 1014.09 1012.46 1011.10 1010.86 1011.24 1011.14 1009.92 1009.53 1009.29 1008.73 1007.74 1007.80 1007.43 1006.50 1004.92 1004.92 1005.61 1006.23 1006.57 1005.75 1005.17 1005.20 1005.16 1004.81 1004.46 1004.46 1004.52 1005.01
1019.53 1019.10 1018.72 1018.31 1017.96 1017.65 1017.35 1017.08 1016.79 1016.58 1016.29 1015.96 1015.71 1015.59 1015.45 1015.18 1014.06 1011.91 1010.43 1010.92 1011.08 1011.11 1010.21 1009.03 1008.47 1008.66 1008.11 1007.59 1007.55 1006.89 1005.92 1005.23 1005.76 1006.14 1006.86 1006.48 1006.14 1005.55 1005.44 1004.88 1004.39 1004.31 1004.30 1004.48 1004.66
1019.48 1018.97 1018.54 1018.12 1017.80 1017.43 1017.11 1016.79 1016.58 1016.34 1016.11 1015.85 1015.63 1015.53 1015.31 1014.76 1012.49 1009.08 1010.01 1010.57 1010.85 1010.67 1009.40 1008.77 1008.16 1007.97 1007.47 1007.21 1006.93 1006.56 1005.57 1006.01 1006.89 1007.34 1007.23 1006.42 1006.12 1006.07 1005.59 1004.83 1004.49 1004.34 1004.23 1004.30 1004.42
1019.53 1018.91 1018.38 1017.94 1017.56 1017.20 1016.90 1016.58 1016.33 1016.11 1016.03 1015.91 1015.71 1015.48 1015.16 1014.02 1010.28 1009.23 1009.51 1010.02 1010.56 1009.85 1009.41 1008.56 1008.04 1007.51 1006.86 1006.88 1007.01 1006.93 1006.62 1006.55 1006.76 1007.09 1007.08 1006.44 1006.29 1005.99 1005.65 1005.16 1005.02 1004.92 1004.64 1004.51 1004.33
1019.51 1018.93 1018.38 1017.81 1017.39 1017.06 1016.74 1016.47 1016.17 1015.96 1015.85 1015.87 1015.74 1015.45 1014.69 1012.32 1009.23 1009.32 1009.98 1010.18 1010.16 1009.71 1008.66 1008.12 1007.57 1006.86 1006.33 1006.42 1007.10 1006.93 1006.53 1006.73 1006.75 1006.72 1006.67 1006.54 1006.08 1006.17 1005.41 1005.19 1005.05 1004.68 1004.50 1004.13 1003.75
1019.34 1018.85 1018.32 1017.74 1017.22 1016.81 1016.50 1016.21 1016.04 1015.83 1015.65 1015.59 1015.52 1015.54 1014.04 1010.82 1009.01 1009.19 1009.45 1009.77 1009.26 1009.03 1008.40 1007.93 1007.20 1007.02 1006.40 1006.35 1006.44 1006.39 1006.61 1006.56 1006.58 1006.16 1006.22 1006.16 1005.50 1005.59 1004.99 1004.92 1004.45 1004.29 1004.09 1003.75 1003.34
1019.08 1018.58 1018.09 1017.57 1017.01 1016.56 1016.15 1015.92 1015.72 1015.56 1015.41 1015.33 1015.27 1014.76 1012.95 1009.85 1009.17 1009.13 1009.22 1008.93 1008.88 1008.64 1008.18 1008.12 1007.82 1007.30 1006.77 1006.62 1006.70 1006.66 1006.50 1006.10 1005.93 1005.77 1005.78 1005.69 1004.88 1004.38 1004.63 1004.51 1004.24 1003.93 1003.61 1003.35 1002.92
1018.85 1018.32 1017.77 1017.24 1016.72 1016.19 1015.76 1015.48 1015.35 1015.21 1015.12 1014.98 1015.04 1013.97 1010.77 1009.33 1009.44 1009.31 1008.97 1008.84 1009.05 1008.92 1008.40 1008.27 1008.14 1007.37 1006.80 1006.97 1006.71 1006.19 1005.91 1004.67 1004.44 1005.53 1005.35 1005.73 1003.82 1003.65 1004.14 1004.24 1003.89 1003.58 1003.42 1003.16 1002.94
1018.66 1018.01 1017.47 1016.85 1016.32 1015.82 1015.35 1014.99 1014.53 1014.58 1014.80 1014.72 1014.31 1013.05 1009.02 1009.57 1009.08 1008.47 1008.76 1008.38 1008.60 1008.78 1008.68 1008.52 1007.91 1007.03 1006.98 1006.28 1005.74 1005.50 1004.33 1004.27 1004.34 1004.99 1004.97 1004.98 1003.61 1003.64 1004.22 1003.89 1003.68 1003.45 1003.27 1002.87 1002.69
1018.38 1017.79 1017.06 1016.52 1015.86 1015.48 1015.10 1014.74 1014.46 1014.38 1014.37 1013.93 1013.22 1012.34 1008.84 1007.55 1007.68 1008.16 1008.50 1008.42 1008.26 1008.38 1008.58 1008.37 1007.61 1006.91 1006.38 1005.89 1004.65 1004.20 1004.84 1004.89 1004.78 1004.59 1004.70 1004.21 1003.74 1003.43 1003.31 1003.19 1003.14 1002.99 1002.72 1002.41 1002.32
1018.05 1017.54 1016.80 1016.08 1015.37 1014.95 1014.54 1014.00 1013.77 1012.97 1012.32 1010.09 1009.23 1008.64 1007.62 1007.45 1007.68 1007.68 1008.11 1008.12 1007.84 1007.75 1007.29 1007.40 1006.78 1005.87 1005.39 1005.71 1005.76 1005.93 1005.70 1005.21 1005.07 1005.05 1004.84 1004.31 1003.71 1003.22 1002.79 1002.60 1002.39 1002.35 1002.21 1001.97 1002.00
1017.68 1017.16 1016.42 1015.65 1014.85 1014.28 1013.47 1011.72 1009.89 1009.90 1008.91 1008.17 1008.34 1007.87 1007.84 1007.83 1007.17 1007.09 1007.59 1007.45 1007.38 1006.77 1006.69 1006.84 1005.89 1005.49 1005.95 1006.20 1006.42 1006.18 1005.67 1005.09 1004.87 1005.02 1004.89 1004.26 1003.51 1003.02 1002.61 1002.16 1002.07 1001.90 1001.55 1001.33 1001.46
1017.38 1016.67 1016.06 1015.10 1014.22 1013.77 1011.98 1010.62 1009.96 1009.68 1008.18 1007.07 1007.38 1007.23 1007.08 1007.64 1006.84 1006.48 1007.06 1006.61 1006.59 1006.34 1006.17 1005.67 1005.30 1006.27 1006.26 1006.22 1006.21 1005.78 1005.36 1005.04 1004.77 1004.59 1004.42 1003.62 1002.29 1001.79 1001.38 1001.62 1001.73 1001.40 1001.08 1000.93 1000.92
1016.91 1016.17 1015.65 1014.73 1013.71 1012.07 1010.57 1010.15 1009.94 1009.87 1007.59 1006.51 1006.48 1006.81 1007.01 1006.55 1006.38 1006.25 1006.42 1006.27 1006.14 1005.76 1005.79 1005.55 1005.29 1005.83 1005.80 1005.63 1005.69 1005.05 1004.97 1005.30 1004.92 1004.41 1003.07 1003.13 1001.30 1001.18 1000.95 1000.69 1000.61 1000.75 1000.75 1000.52 1000.35
1016.27 1015.44 1015.08 1015.09 1013.22 1011.29 1010.58 1010.28 1009.82 1009.64 1006.34 1005.75 1005.99 1006.39 1006.53 1006.32 1005.76 1006.03 1006.31 1006.16 1005.67 1005.68 1006.08 1004.70 1005.24 1005.47 1005.31 1005.15 1005.57 1005.15 1005.48 1005.37 1004.87 1004.07 1003.36 1002.52 1001.45 1000.16 1000.02 999.88 1000.00 1000.21 1000.57 1000.90 1000.98
1015.53 1014.72 1014.22 1013.15 1012.99 1011.34 1010.88 1010.53 1009.92 1007.84 1005.60 1005.10 1005.70 1005.72 1006.11 1006.14 1005.68 1006.02 1006.22 1006.39 1005.96 1005.72 1005.67 1005.14 1005.34 1005.47 1005.11 1005.47 1005.78 1005.79 1005.59 1004.93 1004.42 1003.58 1002.55 1001.53 1001.16 1000.13 1000.24 1000.68 1001.28 1001.77 1001.81 1001.47 1001.19
1014.83 1014.01 1013.28 1012.68 1011.24 1011.17 1010.83 1009.87 1008.18 1006.32 1006.06 1005.65 1005.44 1005.66 1005.78 1005.82 1005.91 1005.84 1005.82 1006.01 1005.66 1005.42 1004.90 1004.55 1004.51 1005.01 1005.71 1005.51 1005.48 1006.11 1005.56 1004.25 1003.33 1002.32 1001.30 1001.45 1001.73 1001.09 1001.60 1002.38 1003.27 1003.25 1002.98 1002.65 1002.66
1014.44 1013.71 1013.21 1012.28 1011.78 1011.45 1010.36 1008.90 1007.39 1007.05 1006.42 1006.58 1006.23 1005.86 1005.97 1006.58 1006.67 1006.68 1006.02 1005.65 1006.02 1005.89 1005.40 1004.92 1004.58 1005.17 1005.80 1005.66 1005.27 1005.40 1006.27 1005.64 1004.64 1003.96 1002.94 1003.22 1001.77 1001.15 1001.98 1003.38 1004.01 1003.80 1003.85 1003.72 1003.48
1014.08 1012.33 1011.37 1011.61 1011.62 1011.45 1009.72 1007.92 1007.42 1007.58 1007.81 1007.10 1006.41 1005.98 1006.18 1007.54 1008.33 1008.23 1007.41 1006.53 1006.24 1006.43 1006.13 1005.56 1005.66 1006.52 1006.64 1006.60 1006.68 1005.87 1006.72 1007.00 1006.75 1006.23 1004.94 1003.45 1001.99 1001.34 1001.38 1003.22 1003.60 1003.74 1003.98 1003.97 1004.19
1014.05 1012.01 1011.15 1011.34 1011.40 1010.76 1009.10 1008.40 1008.23 1008.66 1008.33 1007.72 1006.91 1006.85 1006.74 1007.42 1008.20 1008.64 1008.45 1007.23 1006.98 1007.03 1007.05 1006.55 1006.34 1006.34 1006.79 1007.43 1007.50 1007.28 1007.45 1007.68 1007.83 1007.14 1004.98 1003.13 1002.38 1001.17 1001.61 1001.98 1002.93 1003.45 1003.72 1003.87 1003.76
1013.70 1010.98 1011.17 1011.11 1011.06 1009.69 1008.71 1008.64 1008.96 1009.13 1009.28 1008.75 1007.88 1007.52 1007.53 1007.57 1007.82 1008.20 1008.00 1007.64 1007.60 1007.45 1007.47 1007.27 1007.37 1006.82 1007.33 1006.66 1006.28 1006.96 1007.47 1008.27 1008.74 1008.68 1007.32 1005.01 1002.68 1002.33 1002.76 1003.10 1003.22 1003.72 1003.76 1003.80 1004.03
1013.24 1010.73 1011.30 1010.86 1010.04 1009.95 1009.51 1010.34 1010.38 1009.57 1009.62 1009.29 1009.12 1008.67 1008.30 1008.05 1007.83 1007.82 1007.93 1008.16 1008.38 1008.29 1007.95 1007.85 1007.81 1007.09 1006.65 1006.59 1007.37 1007.45 1007.47 1007.65 1008.29 1008.39 1008.08 1007.20 1003.85 1003.57 1003.59 1003.68 1003.65 1003.54 1003.31 1003.49 1004.11
1013.46 1012.05 1011.37 1010.71 1010.01 1010.25 1011.02 1010.97 1010.85 1010.51 1010.34 1010.13 1009.84 1009.67 1009.18 1008.83 1008.72 1008.59 1008.47 1008.79 1008.78 1008.75 1008.46 1008.67 1008.06 1007.38 1006.23 1007.16 1007.66 1007.44 1007.47 1007.93 1008.16 1008.37 1007.57 1006.68 1003.62 1003.42 1002.97 1002.94 1003.22 1003.39 1002.96 1003.18 1003.68
1014.00 1012.06 1011.70 1011.69 1012.50 1012.57 1012.18 1011.47 1011.32 1011.54 1011.40 1011.27 1010.70 1010.51 1009.94 1009.53 1009.01 1008.85 1008.92 1009.34 1009.40 1009.27 1009.68 1009.54 1008.80 1008.09 1006.94 1006.06 1006.91 1007.39 1007.54 1007.62 1007.79 1007.70 1006.60 1005.14 1003.46 1003.02 1003.05 1002.99 1003.28 1003.66 1003.80 1003.84 1003.74
1014.71 1014.25 1014.59 1012.61 1012.69 1013.66 1013.63 1012.98 1012.56 1012.55 1012.84 1012.65 1012.17 1011.55 1011.37 1010.70 1009.77 1009.51 1009.67 1009.85 1009.50 1009.64 1009.79 1009.73 1008.90 1008.42 1007.68 1007.26 1007.12 1007.03 1007.00 1006.98 1006.66 1006.42 1005.96 1004.33 1003.78 1003.23 1003.12 1003.36 1003.76 1003.83 1003.80 1003.72 1003.50
1015.06 1014.83 1014.59 1014.26 1014.33 1014.39 1014.16 1013.54 1013.95 1014.41 1014.55 1013.82 1013.20 1012.85 1013.16 1012.76 1011.61 1011.13 1011.03 1010.67 1010.05 1009.51 1009.71 1009.84 1009.22 1008.74 1007.84 1007.44 1007.06 1006.51 1006.30 1006.13 1006.03 1005.78 1005.33 1004.74 1003.71 1003.76 1004.03 1004.26 1004.07 1004.04 1004.36 1004.16 1003.74
1016.52 1016.22 1015.75 1014.90 1014.77 1014.71 1014.51 1014.86 1014.93 1015.23 1014.87 1014.48 1014.07 1014.12 1013.72 1013.37 1013.21 1013.01 1012.55 1011.72 1011.02 1010.73 1009.82 1009.66 1009.24 1008.70 1007.66 1007.30 1006.94 1005.93 1005.32 1005.85 1005.93 1005.90 1005.85 1005.44 1004.68 1004.76 1004.39 1004.45 1005.00 1005.05 1004.85 1004.21 1003.47
Wind_Speed
17 17 16 15 13 13 13 12 12 13 12 12 13 12 12 12 14 13 14 5 3 12 3 6 11 13 13 12 9 8 12 15 20 13 12 6 15 15 8 12 12 14 9 9 8
18 17 17 16 15 13 13 13 11 11 11 12 11 11 11 11 14 16 9 4 13 6 10 11 13 14 13 13 10 14 13 17 3 1 7 9 13 14 15 18 15 15 14 10 5
19 18 17 16 14 13 11 11 11 11 10 9 10 10 11 13 9 4 8 13 11 11 12 6 9 13 11 9 11 13 15 11 4 8 12 16 16 15 18 21 19 16 17 14 12
20 19 18 17 15 13 12 10 9 9 9 9 9 9 10 8 1 7 7 17 11 11 11 9 12 12 11 12 11 8 10 9 10 11 13 17 16 19 18 20 19 18 19 19 18
18 19 19 18 16 14 13 11 8 7 6 7 7 7 10 8 6 9 9 13 12 9 11 11 11 10 11 11 9 13 6 8 10 10 13 14 17 18 19 15 16 18 18 19 19
17 19 20 19 17 15 13 12 9 7 6 6 6 5 7 9 4 1 9 13 9 11 9 9 6 4 4 7 14 7 6 8 7 10 11 14 17 16 11 8 13 14 15 16 18
18 17 18 19 19 17 14 11 10 9 8 7 5 8 9 11 1 1 10 7 7 6 9 4 1 9 5 7 4 6 10 11 12 13 9 12 16 20 15 15 11 11 13 14 15
19 18 19 19 18 19 16 13 13 11 8 7 6 7 8 4 2 5 9 6 5 5 3 3 3 1 6 3 6 10 7 12 9 6 7 7 13 6 8 8 11 11 11 12 14
20 20 18 21 20 19 17 14 15 8 8 8 7 7 3 7 8 12 12 6 8 5 3 1 6 3 6 10 8 9 11 6 4 7 8 12 11 1 6 13 16 15 14 12 12
19 20 21 20 20 18 11 13 8 12 8 7 4 7 7 6 4 7 11 8 10 10 7 8 7 9 9 8 9 4 9 7 10 4 9 14 17 16 14 15 16 14 15 14 13
21 20 22 22 21 17 11 5 7 8 8 9 5 10 4 1 5 9 11 12 9 11 13 12 11 11 11 9 7 6 8 10 8 9 12 15 16 15 16 16 17 15 13 13 13
22 21 22 23 22 16 6 6 5 6 9 13 14 13 10 2 4 10 11 14 11 14 11 8 13 9 6 7 9 10 11 12 9 10 11 15 18 17 18 19 18 17 15 15 15
22 22 22 22 26 5 6 10 5 6 8 1 3 4 6 12 6 10 15 14 13 14 11 13 5 4 4 11 11 12 12 11 14 13 16 20 21 17 15 15 14 16 17 18 18
22 22 21 24 11 4 6 1 6 6 7 7 6 5 6 6 7 8 13 9 8 11 10 9 8 7 8 10 10 12 4 9 13 14 14 14 18 17 14 14 15 15 16 17 18
24 23 21 15 10 5 5 7 6 6 6 4 7 7 5 7 4 7 10 11 11 8 8 6 7 9 10 5 5 9 5 11 15 17 19 20 15 15 17 16 13 10 11 14 18
28 27 22 5 6 7 8 10 6 8 2 4 5 5 6 7 3 6 9 8 4 12 12 15 1 7 10 2 6 11 14 15 16 16 15 17 10 5 11 14 13 17 19 20 19
29 28 9 2 4 5 7 5 7 5 1 3 3 0 1 4 3 6 10 12 10 9 14 16 15 15 6 13 11 10 13 11 12 13 12 6 10 11 17 11 11 14 16 16 13
30 22 4 3 7 7 4 6 5 3 3 4 4 5 1 4 2 7 5 9 6 9 11 10 10 6 5 10 11 5 7 9 13 13 17 20 10 8 7 6 4 5 7 10 12
29 2 1 7 4 3 7 6 6 4 5 6 8 6 8 4 1 7 11 13 5 5 7 5 6 3 2 2 4 2 9 9 12 16 16 14 15 14 6 5 5 4 6 8 12
7 3 7 9 3 6 6 3 1 3 6 6 9 4 5 5 8 6 7 8 7 4 3 2 11 6 6 4 5 9 6 7 5 7 11 9 16 13 3 6 8 13 13 15 15
6 4 7 9 4 7 6 4 2 1 7 7 9 9 9 10 11 8 6 2 1 1 5 7 6 3 4 10 11 8 8 6 5 5 6 10 8 8 12 13 15 10 12 15 14
5 3 7 6 6 1 3 4 2 5 6 8 7 11 13 12 9 11 9 5 3 5 10 1 7 10 14 5 5 10 13 11 8 8 7 8 18 12 7 9 11 17 21 15 13
6 4 5 6 4 1 3 4 6 7 7 4 6 7 9 11 6 13 9 3 4 6 4 4 5 8 8 8 6 8 8 10 11 12 17 15 15 3 14 22 17 22 20 14 12
5 2 3 5 4 5 6 6 5 2 9 8 8 9 10 13 11 4 6 4 5 8 3 2 11 13 12 15 5 9 11 12 14 11 18 19 26 21 21 20 18 16 17 17 16
4 4 4 3 3 7 7 5 8 5 5 5 5 8 8 7 11 12 9 7 7 4 5 6 14 15 17 17 15 16 17 17 20 20 21 24 26 24 21 20 17 18 19 21 21
5 5 1 0 4 5 3 2 7 5 4 3 8 6 6 7 13 11 4 8 9 5 8 5 8 9 14 15 16 18 18 18 19 20 22 24 25 20 15 15 20 21 21 23 25
1 1 4 3 2 3 2 2 5 7 6 10 10 5 9 13 11 13 12 18 13 14 10 10 7 8 13 3 9 15 8 4 8 11 13 16 21 23 23 20 19 21 26 29 29
Wind_Direction
347 344 342 337 335 327 322 315 309 306 306 302 303 305 310 315 298 253 256 279 193 253 258 166 173 192 210 203 205 227 228 234 235 225 236 238 248 250 272 266 270 280 280 313 353
348 348 344 341 335 333 326 319 312 304 300 301 306 310 315 314 289 266 239 238 215 284 201 194 164 178 198 204 199 212 223 237 251 238 240 233 252 264 271 268 258 265 268 266 259
350 347 345 342 337 332 327 323 319 313 308 308 311 315 310 296 271 121 155 202 210 221 224 230 160 184 191 197 196 218 241 238 201 232 238 251 251 256 261 261 262 272 280 274 283
348 348 348 344 337 331 325 318 319 316 314 311 311 310 307 281 301 45 336 170 186 179 211 191 185 192 201 199 193 225 238 246 228 229 237 255 264 261 254 266 276 278 275 277 269
342 344 344 345 341 330 320 315 309 303 304 300 295 305 281 241 257 69 115 153 172 193 189 192 200 203 205 201 176 226 207 236 243 244 252 258 258 261 258 256 265 264 262 266 268
338 341 343 340 338 333 321 308 299 281 269 266 279 290 263 259 57 101 140 165 190 203 200 217 212 244 167 186 214 165 200 216 231 243 239 250 258 246 242 226 244 253 258 258 260
336 336 337 339 336 331 323 308 291 276 256 249 236 244 254 269 332 174 174 193 182 216 184 158 131 226 162 167 157 178 232 211 229 238 253 275 261 251 255 266 275 267 266 261 259
331 331 331 332 331 330 322 310 295 269 242 222 199 230 263 142 192 223 188 198 208 201 280 189 228 261 263 80 191 234 243 249 140 208 220 221 269 201 188 255 267 279 282 268 261
330 328 329 328 328 329 323 314 299 227 202 194 195 245 257 134 213 203 198 193 180 198 203 192 259 284 196 233 229 201 265 216 263 212 262 237 283 317 241 281 282 275 265 270 270
327 326 327 325 325 324 329 315 120 151 191 194 260 248 229 162 127 152 188 203 183 180 194 215 222 228 226 225 245 228 237 223 267 263 239 269 273 278 277 274 270 276 277 267 263
324 327 324 324 321 320 294 196 202 187 207 255 283 282 269 220 184 188 177 194 198 203 215 203 229 219 221 224 289 255 258 260 262 266 268 274 278 283 287 281 273 265 258 266 277
323 327 325 322 317 321 222 240 340 359 289 229 251 264 255 316 212 163 178 194 202 217 208 205 232 263 244 242 230 236 246 251 254 248 261 267 274 281 278 279 276 275 272 270 266
321 323 322 319 317 243 253 269 304 308 268 170 186 217 197 195 217 180 198 206 208 221 213 254 88 90 202 207 229 230 257 279 286 298 272 264 270 266 259 231 259 274 275 271 267
318 320 321 330 285 341 266 167 260 290 265 124 168 135 153 191 210 198 210 203 208 229 222 258 242 239 226 236 234 259 264 277 286 285 289 325 293 288 277 276 262 267 275 276 274
316 318 317 317 303 256 22 319 303 223 243 109 98 131 150 218 101 162 205 222 242 199 230 118 182 203 224 242 238 283 320 285 289 282 291 279 267 279 280 281 294 302 302 282 281
318 320 324 203 213 281 310 304 241 229 134 115 124 154 174 208 170 125 189 223 292 248 235 275 224 273 279 288 244 304 277 276 265 264 268 279 307 313 315 330 324 313 314 315 310
322 325 320 273 36 335 313 237 234 271 106 102 84 297 174 143 219 231 191 198 233 223 231 230 233 230 257 252 221 258 264 276 275 250 259 328 302 291 305 5 329 317 308 299 329
325 318 155 305 307 312 252 240 264 39 357 15 303 259 190 22 193 330 227 233 207 270 277 284 279 189 164 256 300 286 310 289 291 292 302 318 277 262 12 65 332 360 8 0 345
312 288 7 14 2 263 258 251 6 358 351 324 295 247 202 215 142 334 319 295 310 231 257 285 244 107 320 254 283 159 251 1 293 274 265 254 254 252 227 173 247 308 329 344 343
309 287 46 342 284 264 260 324 282 7 333 308 285 279 262 191 198 191 214 250 221 246 255 286 278 180 131 220 201 266 19 249 212 282 288 292 308 290 229 279 318 321 331 337 324
269 237 33 345 256 245 289 27 303 12 332 328 314 288 274 264 231 230 247 205 293 158 267 278 248 250 199 227 265 193 213 216 271 268 291 300 282 40 314 300 307 297 313 320 319
290 224 19 331 241 298 310 342 328 301 309 295 274 271 269 264 269 221 232 249 349 322 257 125 297 275 275 337 305 282 281 262 227 237 232 291 278 288 358 329 309 285 306 313 308
338 334 17 302 305 293 346 283 296 314 313 310 282 292 285 283 261 250 250 137 296 266 296 165 229 276 238 189 199 249 229 243 253 249 257 270 275 302 273 313 317 319 307 314 304
301 291 77 62 70 338 339 290 283 308 293 303 275 282 267 259 249 254 227 263 266 277 58 296 263 259 277 313 313 252 250 247 253 250 266 261 277 289 300 309 318 322 324 313 297
351 61 6 359 39 346 322 306 298 327 25 333 313 276 311 274 242 243 226 271 247 227 231 269 265 266 269 277 279 272 264 263 258 257 257 280 284 294 299 318 302 302 309 308 306
333 344 222 6 336 322 250 338 355 13 318 288 265 337 311 279 281 298 314 275 281 244 251 225 263 271 275 267 264 266 264 263 263 265 269 278 282 291 311 287 300 318 316 307 303
70 150 294 129 333 309 306 357 296 315 273 246 287 331 287 274 259 269 274 265 276 285 276 248 259 270 280 236 277 266 273 288 287 277 286 286 299 311 303 318 310 310 309 304 299